[Date Prev][Date Next][Thread Prev][Thread Next] - [Date Index][Thread Index][Author Index]

MIR and ISS Keps 1-22




MIR
1 16609U 86017A   99022.23680230  .00029492  00000-0  23268-3 0  1330
2 16609  51.6604  11.2956 0010525  25.7694 334.3827 15.71089485738440


ISS
1 25544U 98067A   99022.19793563  .00021286  00000-0  29774-3 0  2416
2 25544  51.5908 211.9195 0004547  42.2111 317.9210 15.56759645  9824

----
Via the sarex mailing list at AMSAT.ORG courtesy of AMSAT-NA.
To unsubscribe, send "unsubscribe sarex" to Majordomo@amsat.org



AMSAT Top AMSAT Home